SOYUZ-MS 11

Last updated on June 24, 2019, 12:02 a.m. UTC

1 43756U 18098A   19173.52860648  .00000419  00000-0  14859-4 0  9996
2 43756  51.6430 334.7908 0008000  75.3966 354.1506 15.51215210176083

Satellite is not in orbit.